When you browse on this site, cookies collect data to enhance your experience and personalize the content and advertising you see.
Visit our Privacy Policy to learn more. By continuing to use the site, you agree to this use of cookies and data.
  • In United Kingdom
  • List of Countries
  • For 7 days
  • Water Temperature
  • Weather Map
  • Weather Widgets
  • user-avatar
    Login

    Hourly Weather Smolan

    Today, 16 October, Wednesday

    Time Temperature Precipitation Wind Pressure Humidity
    00:00 +11°C° 0 mm 1 mps 656 mmHg 53%
    01:00 +11°C° 0 mm 1 mps 656 mmHg 52%
    02:00 +11°C° 0 mm 1 mps 656 mmHg 50%
    03:00 +11°C° 0 mm 1 mps 656 mmHg 48%
    04:00 +11°C° 0 mm 1 mps 656 mmHg 46%
    05:00 +10°C° 0 mm 1 mps 656 mmHg 43%
    06:00 +12°C° 0 mm 1 mps 656 mmHg 42%
    07:00 +13°C° 0 mm 1 mps 657 mmHg 42%
    08:00 +15°C° 0 mm 1 mps 658 mmHg 39%
    09:00 +18°C° 0 mm 1 mps 658 mmHg 35%
    10:00 +20°C° 0 mm 1 mps 659 mmHg 31%
    11:00 +22°C° 0 mm 1 mps 659 mmHg 28%
    12:00 +22°C° 0 mm 1 mps 659 mmHg 28%
    13:00 +23°C° 0 mm 1 mps 659 mmHg 28%
    14:00 +23°C° 0 mm 2 mps 659 mmHg 27%
    15:00 +21°C° 0 mm 1 mps 658 mmHg 36%
    16:00 +19°C° 0 mm 1 mps 657 mmHg 44%
    17:00 +15°C° 0 mm 0 mps 656 mmHg 52%
    18:00 +15°C° 0 mm 1 mps 656 mmHg 55%
    19:00 +14°C° 0 mm 1 mps 656 mmHg 58%
    20:00 +12°C° 0 mm 1 mps 656 mmHg 61%
    21:00 +12°C° 0 mm 1 mps 656 mmHg 61%
    22:00 +12°C° 0 mm 1 mps 656 mmHg 61%
    23:00 +12°C° 0 mm 1 mps 656 mmHg 60%

    Tomorrow, 17 October, Thursday

    Time Temperature Precipitation Wind Pressure Humidity
    00:00 +12°C° 0 mm 1 mps 656 mmHg 60%
    01:00 +12°C° 0 mm 1 mps 656 mmHg 60%
    02:00 +11°C° 0 mm 1 mps 656 mmHg 60%
    03:00 +11°C° 0 mm 1 mps 656 mmHg 59%
    04:00 +11°C° 0 mm 1 mps 656 mmHg 58%
    05:00 +11°C° 0 mm 1 mps 656 mmHg 57%
    06:00 +12°C° 0 mm 1 mps 657 mmHg 55%
    07:00 +13°C° 0 mm 1 mps 657 mmHg 53%
    08:00 +14°C° 0 mm 1 mps 658 mmHg 50%
    09:00 +16°C° 0 mm 1 mps 658 mmHg 44%
    10:00 +19°C° 0 mm 1 mps 659 mmHg 38%
    11:00 +22°C° 0 mm 1 mps 660 mmHg 31%
    12:00 +22°C° 0 mm 1 mps 660 mmHg 31%
    13:00 +22°C° 0 mm 1 mps 660 mmHg 31%
    14:00 +21°C° 0 mm 2 mps 659 mmHg 31%
    15:00 +21°C° 0 mm 1 mps 659 mmHg 38%
    16:00 +19°C° 0 mm 1 mps 658 mmHg 46%
    17:00 +18°C° 0 mm 1 mps 658 mmHg 53%
    18:00 +15°C° 0 mm 1 mps 657 mmHg 56%
    19:00 +14°C° 0 mm 1 mps 657 mmHg 60%
    20:00 +13°C° 0 mm 1 mps 657 mmHg 63%
    21:00 +12°C° 0 mm 1 mps 657 mmHg 63%
    22:00 +12°C° 0 mm 1 mps 657 mmHg 63%
    23:00 +12°C° 0 mm 1 mps 657 mmHg 63%

    Day after tomorrow, 18 October, Friday

    Time Temperature Precipitation Wind Pressure Humidity
    00:00 +12°C° 0 mm 1 mps 657 mmHg 62%
    01:00 +11°C° 0 mm 1 mps 657 mmHg 62%
    02:00 +11°C° 0 mm 1 mps 657 mmHg 62%
    03:00 +11°C° 0 mm 1 mps 657 mmHg 61%
    04:00 +11°C° 0 mm 1 mps 657 mmHg 61%
    05:00 +11°C° 0 mm 1 mps 657 mmHg 60%
    06:00 +12°C° 0 mm 1 mps 657 mmHg 57%
    07:00 +13°C° 0 mm 1 mps 657 mmHg 54%
    08:00 +13°C° 0 mm 0 mps 658 mmHg 51%
    09:00 +16°C° 0 mm 1 mps 659 mmHg 45%
    10:00 +19°C° 0 mm 1 mps 659 mmHg 39%
    11:00 +21°C° 0 mm 1 mps 660 mmHg 34%
    12:00 +21°C° 0 mm 1 mps 660 mmHg 33%
    13:00 +22°C° 0 mm 1 mps 659 mmHg 33%
    14:00 +21°C° 0 mm 2 mps 659 mmHg 33%
    15:00 +21°C° 0 mm 1 mps 659 mmHg 40%
    16:00 +19°C° 0 mm 1 mps 658 mmHg 47%
    17:00 +16°C° 0 mm 1 mps 657 mmHg 54%
    18:00 +15°C° 0 mm 1 mps 657 mmHg 58%
    19:00 +13°C° 0 mm 1 mps 656 mmHg 63%
    20:00 +12°C° 0 mm 1 mps 656 mmHg 67%
    21:00 +12°C° 0 mm 1 mps 656 mmHg 67%
    22:00 +12°C° 0 mm 1 mps 656 mmHg 67%
    23:00 +12°C° 0 mm 1 mps 657 mmHg 67%

    19 October, Saturday

    Time Temperature Precipitation Wind Pressure Humidity
    00:00 +11°C° 0 mm 1 mps 657 mmHg 67%
    01:00 +11°C° 0 mm 1 mps 656 mmHg 67%
    02:00 +11°C° 0 mm 1 mps 656 mmHg 67%
    03:00 +11°C° 0 mm 1 mps 656 mmHg 67%
    04:00 +11°C° 0 mm 1 mps 656 mmHg 67%
    05:00 +11°C° 0 mm 1 mps 656 mmHg 67%
    06:00 +12°C° 0 mm 1 mps 657 mmHg 64%
    07:00 +12°C° 0 mm 0 mps 657 mmHg 60%
    08:00 +13°C° 0 mm 0 mps 658 mmHg 57%
    09:00 +16°C° 0 mm 1 mps 659 mmHg 50%
    10:00 +19°C° 0 mm 1 mps 659 mmHg 43%
    11:00 +21°C° 0 mm 1 mps 660 mmHg 37%
    12:00 +21°C° 0 mm 1 mps 660 mmHg 36%
    13:00 +21°C° 0 mm 2 mps 660 mmHg 36%
    14:00 +21°C° 0 mm 2 mps 659 mmHg 36%
    15:00 +19°C° 0 mm 2 mps 659 mmHg 43%
    16:00 +19°C° 0 mm 1 mps 658 mmHg 50%
    17:00 +16°C° 0 mm 1 mps 658 mmHg 56%
    18:00 +15°C° 0 mm 1 mps 657 mmHg 61%
    19:00 +14°C° 0 mm 1 mps 657 mmHg 65%
    20:00 +12°C° 0 mm 1 mps 657 mmHg 70%
    21:00 +12°C° 0 mm 1 mps 657 mmHg 70%
    22:00 +12°C° 0 mm 1 mps 657 mmHg 71%
    23:00 +12°C° 0 mm 1 mps 657 mmHg 71%

    20 October, Sunday

    Time Temperature Precipitation Wind Pressure Humidity
    00:00 +11°C° 0 mm 1 mps 657 mmHg 71%
    01:00 +11°C° 0 mm 1 mps 657 mmHg 71%
    02:00 +11°C° 0 mm 1 mps 657 mmHg 72%
    03:00 +11°C° 0 mm 1 mps 657 mmHg 72%
    04:00 +11°C° 0 mm 1 mps 657 mmHg 71%
    05:00 +11°C° 0 mm 1 mps 657 mmHg 71%
    06:00 +12°C° 0 mm 1 mps 658 mmHg 68%
    07:00 +13°C° 0 mm 1 mps 658 mmHg 64%
    08:00 +13°C° 0 mm 0 mps 659 mmHg 60%
    09:00 +16°C° 0 mm 1 mps 660 mmHg 53%
    10:00 +19°C° 0 mm 1 mps 660 mmHg 46%
    11:00 +21°C° 0 mm 1 mps 661 mmHg 39%
    12:00 +22°C° 0 mm 1 mps 661 mmHg 38%
    13:00 +21°C° 0 mm 2 mps 661 mmHg 38%
    14:00 +21°C° 0 mm 2 mps 661 mmHg 37%
    15:00 +21°C° 0 mm 1 mps 660 mmHg 43%
    16:00 +19°C° 0 mm 1 mps 659 mmHg 50%
    17:00 +18°C° 0 mm 1 mps 659 mmHg 56%
    18:00 +15°C° 0 mm 1 mps 659 mmHg 60%
    19:00 +14°C° 0 mm 1 mps 658 mmHg 64%
    20:00 +13°C° 0 mm 1 mps 658 mmHg 67%
    21:00 +12°C° 0 mm 1 mps 658 mmHg 68%
    22:00 +12°C° 0 mm 1 mps 659 mmHg 68%
    23:00 +12°C° 0 mm 1 mps 659 mmHg 68%

    21 October, Monday

    Time Temperature Precipitation Wind Pressure Humidity
    00:00 +11°C° 0 mm 1 mps 659 mmHg 69%
    01:00 +11°C° 0 mm 1 mps 658 mmHg 69%
    02:00 +11°C° 0 mm 1 mps 658 mmHg 70%
    03:00 +11°C° 0 mm 1 mps 658 mmHg 69%
    04:00 +11°C° 0 mm 1 mps 658 mmHg 68%
    05:00 +10°C° 0 mm 1 mps 658 mmHg 67%
    06:00 +11°C° 0 mm 1 mps 659 mmHg 64%
    07:00 +12°C° 0 mm 1 mps 659 mmHg 61%
    08:00 +13°C° 0 mm 1 mps 659 mmHg 57%
    09:00 +15°C° 0 mm 1 mps 660 mmHg 50%
    10:00 +17°C° 0 mm 2 mps 661 mmHg 43%
    11:00 +19°C° 0 mm 2 mps 662 mmHg 36%
    12:00 +19°C° 0 mm 2 mps 661 mmHg 34%
    13:00 +20°C° 0 mm 3 mps 661 mmHg 32%
    14:00 +20°C° 0 mm 3 mps 661 mmHg 31%
    15:00 +18°C° 0 mm 2 mps 660 mmHg 36%
    16:00 +17°C° 0 mm 2 mps 660 mmHg 41%
    17:00 +15°C° 0 mm 1 mps 659 mmHg 46%
    18:00 +14°C° 0 mm 1 mps 659 mmHg 49%
    19:00 +13°C° 0 mm 1 mps 659 mmHg 51%
    20:00 +11°C° 0 mm 1 mps 658 mmHg 53%
    21:00 +11°C° 0 mm 1 mps 658 mmHg 55%
    22:00 +11°C° 0 mm 1 mps 658 mmHg 56%
    23:00 +10°C° 0 mm 1 mps 658 mmHg 57%
    Show more